Other Surface Observations
Issued by NWS Tucson, AZ

Home | Current Version | Previous Version | Text Only | Print | Product List | Glossary On
Versions: 1 2 3 4 5 6 7 8 9 10 11 12 13 14 15 16 17 18 19 20 21 22 23 24 25 26 27 28 29 30 31 32 33 34 35 36 37 38 39 40 41 42 43 44 45 46 47 48 49 50
000
SXUS55 KTWC 201315
OSOTWC

WEATHER ROUNDUP FOR SOUTHEAST ARIZONA
NATIONAL WEATHER SERVICE TUCSON AZ
615 AM MST WED SEP 20 2017

AZZ504>506-514-201415-
LOCATION       SKY/WX    TMP DP  RH WIND       PRES   REMARKS
TUCSON         CLEAR     71  55  56 SE8       29.96S
DAVIS-MONTHAN  CLEAR     67  55  64 SE7       29.95R
CHILDRENS PARK N/A      N/A N/A  58 E5                PIMA CO DEQ
ALVERNON/22ND  N/A       73 N/A N/A E3                PIMA CO DEQ
CHERRY/GLENN   N/A      N/A N/A N/A N/A               PIMA CO DEQ
TANGERINE      N/A       71 N/A N/A SE5               PIMA CO DEQ
CONTL RANCH    N/A       68  53  58 SE3               PIMA CO DEQ
GRANT/1ST      N/A       72  55  55 E4                PIMA CO DEQ
CRAYCROFT/22ND N/A       71  57  61 E3                PIMA CO DEQ
GOLFLINKS/KOLB N/A       71  56  60 SE5               PIMA CO DEQ
AJO/12TH       N/A       68  57  67 SE1               PIMA CO DEQ
FAIRGROUNDS    N/A       65 N/A N/A SE7               PIMA CO DEQ
SAGUARO        N/A       74  53  48 N3                *SABINO CYN
SAN CARLOS     N/A       59  28  31 NW4               *SAN CARLOS
GREEN VALLEY   N/A       72  61  68 SW3               PIMA CO DEQ
HORSE CAMP CYN N/A       67  48  50 S2                *ARAVAIPA CYN
RINCON MTNS    N/A       50  50  100 SW4G13           *NR MANNING CAMP
$$

AZZ509>511-201415-
LOCATION       SKY/WX    TMP DP  RH WIND       PRES   REMARKS
SAFFORD        CLEAR     60  37  42 SE3       29.97R
STRAY HORSE    N/A       56  23  27 W10G23            *
TRAIL CABIN    N/A       56  37  48 SW3               *N OF GRANVILLE
BLACK HILLS    NOT AVBL
DRY LAKE       N/A       51  36  56 SW3               *NATANES MTNS
NOON CREEK     N/A       61  40  45 SW4               *PINALENO MTNS
COLUMBINE      N/A       47  36  65 SW7G15            *PINALENO MTNS
GUTHRIE        N/A       62  38  41 S3                *SW OF GUTHRIE
$$

AZZ502-503-513-201415-
LOCATION       SKY/WX    TMP DP  RH WIND       PRES   REMARKS
NOGALES        CLEAR     62  57  83 CALM      30.04R
SELLS          N/A       73  61  67 SE8G11            *
SASABE         N/A       61  58  91 SW4               *ALTAR VLY
HOPKINS        N/A       56  53  91 W7G16             *SANTA RITA MTNS
CARR CYN       N/A       61  50  66 CALM              *W OF HEREFORD
$$

AZZ507-508-512-201415-
LOCATION       SKY/WX    TMP DP  RH WIND       PRES   REMARKS
SIERRA VISTA   CLEAR     63  55  75 NE6       30.09R
DOUGLAS        CLEAR     62  55  77 NE3       30.06R
EMPIRE MTNS    NOT AVBL
MULESHOE RANCH N/A       60  51  73 CALM              *PRESERVE
HEADQUARTERS   N/A       58  51  78 E2                *CHIRICAHUA MTNS
$$

.............................NOTES.............................
THIS IS AN AUTOMATED COLLECTIVE WITH MINIMAL QUALITY CONTROL.
PIMA CO DEQ SITES HAVE NONSTANDARD WIND SENSOR HEIGHTS.
PIMA CO DEQ SITES DO NOT REPORT WIND GUSTS.
* INDICATES WIND SENSORS LOCATED AT 20 FEET INSTEAD OF 33 FEET.
..............................KEY..............................
SKY/WX - SKY CONDITION/WEATHER
TMP    - TEMPERATURE IN FAHRENHEIT
DP     - DEWPOINT IN FAHRENHEIT
RH     - RELATIVE HUMIDITY IN PERCENT
WIND   - DIRECTION AND SPEED IN MILES PER HOUR (MPH)
VRB    - VARIABLE WIND DIRECTION
PRES   - MEAN SEA LEVEL PRESSURE IN INCHES OF MERCURY
         F - FALLING PRESSURE   R - RISING PRESSURE
         S - STEADY PRESSURE
VSB    - VISIBILITY IN MILES
HX     - HEAT INDEX IN FAHRENHEIT
WCI    - WIND CHILL INDEX IN FAHRENHEIT
N/A    - NOT AVAILABLE
AFB    - AIR FORCE BASE
         DAVIS-MONTHAN IS DAVIS-MONTHAN AIR FORCE BASE
CYN    - CANYON
MTNS   - MOUNTAINS
NCA    - NATIONAL CONSERVATION AREA
NR     - NEAR
VLY    - VALLEY
CONTL  - CONTINENTAL
PIMA CO DEQ - PIMA COUNTY DEPT OF ENVIRONMENTAL QUALITY



USA.gov is the U.S. government's official web portal to all federal, state and local government web resources and services.